Fukui, Japan

9:44 AM JST on January 19, 2017 (GMT +0900)
Osaka International

Weather History for RJOO - July, 2013

Change the Weather History Date:

Monday, July 22, 2013

  Actual Average Record
Temperature  
Mean Temperature 86 °F -  
Max Temperature 93 °F 89 °F 96 °F (2000)
Min Temperature 78 °F 73 °F 69 °F (2003)
Cooling Degree Days 20    
Growing Degree Days 36 (Base 50)    
Moisture  
Dew Point 71 °F    
Average Humidity 63    
Maximum Humidity 78    
Minimum Humidity 44    
Precipitation  
Precipitation 0.00 in - - ()
Sea Level Pressure  
Sea Level Pressure 29.82 in    
Wind  
Wind Speed 6 mph ()    
Max Wind Speed 14 mph    
Max Gust Speed -    
Visibility 6.2 miles    
Events Rain , Thunderstorm    
Averages and records for this station are not official NWS values.
T = Trace of Precipitation, MM = Missing Value Source: Averaged Metar Reports

Daily Weather History Graph

Daily Weather History Graph

Search for Another Location

Airport or City:

Trip Planner

Search our weather history database for the weather conditions in past years. The results will help you decide how hot, cold, wet, or windy it might be!

Date:

Astronomy

Jul. 22, 2013 Rise Set
Actual Time 5:00 AM JST 7:08 PM JST
Civil Twilight 4:32 AM JST 7:36 PM JST
Nautical Twilight 3:57 AM JST 8:11 PM JST
Astronomical Twilight 3:19 AM JST 8:48 PM JST
Moon 6:27 PM JST (7/22) 4:11 AM JST (7/22)
Length of Visible Light 15h 04m
Length of Day
14h 07m
Waxing Gibbous, 99% of the Moon is Illuminated
Jul 22
Waxing Gibbous
Jul 23
Full
Jul 30
Last Quarter
Aug 7
New
Aug 14
First Quarter

Hourly Weather History & Observations

Time (JST) Temp. Heat Index Dew Point Humidity Pressure Visibility Wind Dir Wind Speed Gust Speed Precip Events Conditions
5:00 AM 78.8 °F - 71.6 °F 78% 29.83 in 6.2 mi NW 3.5 mph - N/A   Partly Cloudy
6:00 AM 80.6 °F 84.6 °F 71.6 °F 74% 29.86 in 6.2 mi NW 2.3 mph - N/A   Partly Cloudy
7:00 AM 80.6 °F 84.6 °F 71.6 °F 74% 29.86 in 6.2 mi NW 3.5 mph - N/A   Scattered Clouds
8:00 AM 84.2 °F 89.6 °F 71.6 °F 66% 29.86 in 6.2 mi WSW 8.1 mph - N/A   Mostly Cloudy
9:00 AM 84.2 °F 89.6 °F 71.6 °F 66% 29.86 in 6.2 mi SW 9.2 mph - N/A   Mostly Cloudy
10:00 AM 87.8 °F 95.6 °F 73.4 °F 62% 29.86 in 6.2 mi SW 9.2 mph - N/A   Mostly Cloudy
11:00 AM 87.8 °F 93.8 °F 71.6 °F 58% 29.83 in 6.2 mi SW 9.2 mph - N/A   Mostly Cloudy
12:00 PM 89.6 °F 96.2 °F 71.6 °F 55% 29.83 in 6.2 mi SW 6.9 mph - N/A   Mostly Cloudy
12:24 PM 93.2 °F 102.4 °F 73.4 °F 52% 29.80 in 6.2 mi SSW 8.1 mph - N/A   Mostly Cloudy
1:00 PM 89.6 °F 96.2 °F 71.6 °F 55% 29.80 in 6.2 mi SSW 8.1 mph - N/A   Scattered Clouds
1:17 PM 93.2 °F 100.5 °F 71.6 °F 49% 29.80 in 6.2 mi Variable 5.8 mph - N/A   Scattered Clouds
2:00 PM 93.2 °F 98.8 °F 69.8 °F 46% 29.77 in 6.2 mi SW 10.4 mph - N/A   Scattered Clouds
3:00 PM 93.2 °F 97.7 °F 68.0 °F 44% 29.77 in 6.2 mi SW 10.4 mph - N/A   Partly Cloudy
4:00 PM 87.8 °F 90.4 °F 66.2 °F 49% 29.77 in 6.2 mi NW 12.7 mph - N/A   Scattered Clouds
5:00 PM 82.4 °F 85.4 °F 68.0 °F 62% 29.80 in 6.2 mi WNW 10.4 mph - N/A Rain , Thunderstorm Light Thunderstorms and Rain
5:24 PM 82.4 °F 86.3 °F 69.8 °F 66% 29.80 in 6.2 mi NNW 13.8 mph - N/A Rain Light Rain Showers
6:00 PM 78.8 °F - 71.6 °F 78% 29.80 in 6.2 mi NNW 11.5 mph - N/A Rain Light Rain Showers
7:00 PM 78.8 °F - 71.6 °F 78% 29.80 in 6.2 mi NW 8.1 mph - N/A Rain Light Rain Showers
8:00 PM 78.8 °F - 71.6 °F 78% 29.83 in 6.2 mi NW 8.1 mph - N/A   Partly Cloudy